ECMWFFLT1_con_mucape_021.txt.gz
CAPE
10 9 7 5 6 3 4 4 2 0 0 0 0 0 0 0 0 0 1 0 0 0 0 0 0 0 0 0 0 0 0 0 1 1 1 4 4 0 0 0 0 0 0 0 0 0 0 0 0 0 0 0 0 0 0 0 0 0 0 0 0 0 0
8 7 5 8 7 7 6 7 8 3 0 0 0 0 0 0 0 0 0 0 0 0 0 0 0 0 0 0 0 0 0 0 0 2 3 4 4 2 0 0 0 3 7 4 1 0 0 0 0 0 0 0 0 0 0 0 0 0 0 0 0 0 0
12 11 9 8 7 6 7 7 10 8 2 0 0 0 0 0 0 0 0 0 0 0 0 0 0 0 0 0 0 0 0 0 0 3 4 3 3 1 1 0 0 1 3 7 9 5 3 0 0 0 0 0 0 0 0 0 0 0 0 0 0 0 0
10 11 8 6 8 7 6 7 10 9 7 1 0 0 0 0 0 0 0 1 1 0 0 0 0 0 0 0 0 0 0 0 1 3 4 4 0 0 0 0 0 0 2 16 15 4 0 0 0 0 0 0 0 0 0 0 0 0 0 0 0 0 0
9 11 13 11 11 11 9 12 10 12 10 6 3 0 0 0 0 0 0 0 1 0 0 0 0 0 0 1 0 0 0 0 1 1 4 7 4 1 0 0 0 0 0 6 6 2 0 0 0 0 0 0 0 0 0 0 0 0 0 0 0 0 0
9 8 11 10 13 15 16 14 13 13 11 10 8 3 1 0 1 0 0 0 0 0 1 0 0 0 0 1 1 0 0 0 0 2 5 9 8 3 1 0 0 0 0 0 0 3 2 0 0 0 0 0 0 0 0 0 0 0 0 0 0 0 0
12 7 6 10 8 9 12 18 19 20 20 16 12 7 4 2 2 1 1 0 0 0 0 0 0 0 0 0 0 0 0 0 0 0 3 8 8 5 2 0 0 0 0 0 0 0 0 0 0 0 0 0 0 0 0 0 0 0 0 0 0 0 0
8 5 9 9 6 9 11 15 19 20 19 19 16 12 8 6 4 3 2 2 1 0 0 0 0 0 0 0 0 0 0 0 0 0 2 5 6 4 2 0 0 0 0 0 0 0 0 0 0 0 0 0 0 0 0 0 0 0 0 0 0 0 0
10 7 6 3 5 11 8 10 16 17 17 16 16 16 13 9 5 6 6 4 1 0 0 0 0 0 0 0 0 0 2 0 0 0 1 2 4 4 1 0 0 0 0 0 0 0 0 0 0 0 0 0 0 0 0 0 0 0 0 0 0 0 0
5 1 2 3 10 9 6 8 12 13 12 14 13 14 13 10 7 6 4 2 1 0 0 0 0 0 0 0 0 0 0 1 0 0 0 2 3 4 2 0 0 0 0 0 0 0 0 0 0 0 0 0 0 0 0 0 0 0 0 0 0 0 0
0 3 10 10 4 1 1 5 8 5 7 8 6 6 11 12 9 7 3 2 0 0 0 0 0 0 0 0 0 0 0 0 0 0 0 1 1 2 1 0 0 0 0 0 0 0 0 0 0 0 0 0 0 0 0 0 0 0 0 0 0 0 0
4 1 1 5 2 0 0 0 0 3 4 4 4 6 14 11 7 7 4 0 0 0 0 0 0 0 0 0 0 0 0 0 1 0 0 0 1 1 2 0 0 0 0 0 0 0 0 0 0 0 0 0 0 0 0 0 0 0 0 0 0 0 0
2 1 1 2 4 5 4 2 0 2 3 4 5 6 6 8 2 3 8 6 2 0 0 0 0 0 0 0 0 0 0 0 1 0 0 0 0 2 2 1 0 0 0 0 2 6 2 0 0 0 0 0 0 0 0 0 0 0 0 0 0 0 0
1 1 3 3 3 1 0 0 0 2 4 6 4 4 0 7 8 6 7 6 2 0 0 0 0 0 0 1 0 0 0 0 1 0 0 0 3 4 4 2 1 0 0 0 3 7 7 0 0 0 0 0 0 0 0 0 0 0 0 0 0 0 0
2 2 2 2 2 5 4 3 3 7 9 8 1 1 1 7 9 7 7 4 2 0 0 0 0 0 0 0 0 0 0 0 0 0 0 1 3 2 5 1 0 0 0 0 0 0 0 0 0 0 0 0 0 0 0 0 0 0 0 0 0 0 0
2 2 4 5 7 6 4 1 3 4 4 3 1 0 4 17 13 8 5 3 0 0 0 0 0 0 0 0 0 0 3 0 0 0 0 0 4 8 1 1 0 1 0 0 0 0 0 0 0 0 0 0 0 0 0 0 0 0 0 0 0 0 0
5 5 5 5 2 0 0 0 1 3 1 0 0 12 28 16 11 7 4 1 0 0 0 0 0 1 0 0 0 1 7 6 2 0 0 0 0 0 2 1 2 4 6 6 3 1 0 0 0 0 0 1 0 0 0 0 0 0 0 0 0 0 0
8 11 10 4 3 4 1 3 2 1 0 3 12 16 15 13 7 2 0 0 0 0 0 0 0 2 0 0 0 4 9 12 4 0 0 0 0 0 1 1 0 2 11 14 13 8 3 3 4 2 2 2 1 0 0 0 0 0 0 0 0 0 0
12 13 12 6 2 3 2 2 1 2 5 7 5 5 8 10 4 0 0 0 0 0 0 0 0 0 1 3 5 6 9 14 3 0 0 1 0 2 4 0 0 2 4 6 7 4 1 0 0 0 0 0 0 0 0 0 0 0 0 0 0 0 0
11 12 7 0 2 3 7 10 9 6 5 3 3 4 5 1 0 0 0 0 0 0 0 0 0 1 1 1 2 7 13 14 8 0 0 1 2 0 0 0 0 0 0 1 1 0 0 0 0 0 0 0 0 0 0 0 0 0 0 0 0 0 0
3 2 3 6 4 3 2 1 1 1 3 4 4 3 4 0 0 0 0 0 0 0 0 0 0 0 2 3 4 6 12 12 11 1 0 0 0 0 0 0 0 0 0 0 0 0 0 0 0 0 0 0 0 0 0 0 0 0 0 0 0 0 0
1 2 1 0 0 1 1 0 1 1 1 2 2 4 6 0 0 0 0 0 0 0 0 0 0 0 2 6 6 7 14 18 12 6 0 0 4 8 9 0 0 0 0 0 0 0 0 0 0 0 0 0 0 0 0 0 0 0 0 0 0 0 0
13 10 2 0 3 4 3 0 0 1 1 2 3 4 4 0 0 0 0 0 0 0 0 0 0 0 2 7 8 12 15 21 17 3 0 11 13 13 5 0 0 0 0 0 0 0 0 0 0 0 0 0 0 0 0 0 0 0 0 0 0 0 0
5 4 0 0 0 2 1 0 0 0 1 1 2 1 2 1 0 0 0 0 0 0 0 0 0 0 3 6 10 12 16 5 0 0 4 14 9 9 1 0 0 0 0 0 0 0 0 0 0 0 0 0 0 0 0 0 0 0 0 0 0 0 0
3 2 1 0 0 1 0 0 0 0 1 1 0 0 3 1 0 0 0 0 0 0 0 0 0 1 4 6 9 13 9 4 1 0 8 8 11 0 0 0 0 0 0 0 0 0 0 0 0 0 0 0 0 0 0 0 0 0 0 0 0 0 0
1 1 1 1 2 1 0 0 0 0 0 0 0 0 2 1 0 0 0 0 0 0 0 1 2 2 5 7 9 9 1 0 0 2 5 9 0 0 0 0 0 0 0 0 0 0 0 0 0 0 0 0 0 0 0 0 0 0 0 0 0 0 0
4 1 1 2 2 1 0 0 1 0 0 0 0 0 1 1 0 0 1 0 0 1 2 3 4 4 4 5 10 10 3 0 1 2 0 0 0 0 0 0 0 0 0 0 0 0 0 0 0 0 0 0 0 0 0 0 0 0 0 0 0 0 0
2 2 2 2 3 2 0 0 0 0 0 0 0 0 0 0 0 0 0 0 0 0 2 2 3 6 6 1 0 0 0 0 0 0 0 0 0 0 0 0 0 0 0 0 0 0 0 0 0 0 0 0 0 0 0 0 0 0 0 0 0 0 0
2 4 3 2 3 3 3 1 0 0 0 0 0 1 0 0 0 0 0 0 1 2 1 0 0 0 1 0 0 0 0 0 0 0 0 0 0 0 0 0 0 0 0 0 0 0 0 0 0 0 0 0 0 0 0 0 0 0 0 0 0 0 0
4 3 2 2 3 3 3 1 0 0 0 1 1 3 2 0 0 0 0 3 1 0 0 0 0 0 1 0 0 0 0 0 0 0 0 0 0 0 0 0 0 0 0 0 0 0 0 0 0 0 0 0 0 0 0 0 0 0 0 0 0 0 0
5 4 5 5 4 3 2 0 0 0 0 2 3 3 4 2 2 2 6 3 0 0 0 0 0 1 1 1 0 0 0 0 0 0 0 0 0 0 0 0 0 0 0 0 0 0 0 0 0 0 0 0 0 0 0 0 0 0 0 0 0 0 0
5 6 7 6 4 4 1 0 0 0 1 3 4 5 4 2 4 6 4 0 0 0 1 0 0 1 1 0 0 0 0 0 0 0 0 0 0 0 0 0 0 0 0 0 0 0 0 0 0 0 0 0 0 0 0 0 0 0 0 0 0 0 0
4 4 5 3 2 4 2 1 1 1 3 4 7 7 8 5 6 5 3 1 0 0 0 0 0 0 0 0 0 0 0 0 0 0 0 0 0 0 0 0 0 0 0 0 0 0 0 0 0 0 0 0 0 0 0 0 0 0 0 0 0 0 0
1 1 2 1 2 4 2 3 2 3 4 5 8 9 13 8 6 4 0 1 0 0 0 0 0 0 0 0 0 0 0 0 0 0 0 0 0 0 0 0 0 0 0 0 0 0 0 0 0 0 0 0 0 0 0 0 0 0 0 0 0 0 0
0 1 0 5 3 3 5 4 5 5 5 6 10 11 18 8 2 2 0 0 0 0 0 0 0 0 0 0 0 0 0 0 0 0 0 0 0 0 0 0 0 0 0 0 0 0 0 0 0 0 0 0 0 0 0 0 0 0 0 0 0 0 0
0 0 0 9 7 6 7 10 8 6 6 8 9 13 12 5 3 1 0 0 0 0 0 0 0 0 0 0 0 0 0 0 0 0 0 0 0 0 0 0 0 0 0 0 0 0 0 0 0 0 0 0 0 0 0 0 0 0 0 0 0 0 0

ECMWFFLT1_con_mucape_027.txt.gz
CAPE
0 0 0 0 0 0 1 1 1 0 0 0 0 0 1 2 1 0 0 0 0 0 3 5 4 2 0 0 0 0 0 0 0 0 0 0 0 0 0 0 0 0 0 0 0 0 0 0 0 0 0 0 0 0 0 0 0 0 0 0 0 0 0
0 0 0 0 0 0 0 0 0 2 2 1 0 0 0 0 0 1 7 2 0 0 2 6 7 11 11 4 0 0 0 0 0 0 0 0 0 0 0 0 0 0 0 0 0 0 0 0 0 0 0 0 0 0 0 0 0 0 0 0 0 0 0
1 2 2 5 2 1 2 3 4 2 1 0 0 1 3 0 0 2 5 6 3 0 0 1 6 8 11 13 15 12 6 1 0 0 0 0 0 0 0 0 0 0 0 0 0 0 0 0 0 0 0 0 0 0 0 0 0 0 0 0 0 0 0
7 7 5 5 2 0 0 1 1 2 0 0 0 1 0 0 0 0 3 5 3 1 1 1 1 1 3 7 9 10 10 14 11 3 0 0 0 0 0 0 0 0 0 0 0 0 0 0 0 0 0 0 0 0 0 0 0 0 0 0 0 0 0
5 13 18 15 10 6 4 1 0 2 3 3 3 3 1 2 2 1 1 6 11 5 0 0 2 1 1 3 3 1 3 5 6 6 8 7 2 0 0 0 0 0 0 0 0 0 0 0 0 0 0 0 0 0 0 1 0 0 0 0 0 0 0
0 0 0 1 6 5 0 0 0 0 0 3 5 2 2 1 1 1 1 8 15 13 4 1 2 5 4 5 3 2 0 0 0 1 3 5 5 4 2 0 0 0 0 0 0 0 0 0 0 0 0 0 0 0 0 0 0 0 0 0 0 0 0
4 0 0 0 0 0 0 0 0 0 0 0 4 6 3 3 3 0 4 4 8 8 1 2 6 12 10 2 1 0 1 2 3 2 2 1 1 5 6 4 1 0 0 0 0 0 0 0 0 0 0 0 0 0 0 0 0 0 0 0 0 0 0
3 1 0 0 0 0 0 0 0 0 0 0 3 12 13 12 9 10 10 13 11 11 3 1 3 10 10 3 1 1 2 3 3 5 4 4 2 0 2 4 3 2 0 0 0 0 0 0 0 0 0 0 0 0 0 0 0 0 0 0 0 0 0
0 0 0 0 0 0 0 0 0 0 0 0 2 12 22 25 16 7 4 3 1 2 9 8 6 3 4 3 1 1 3 2 2 4 4 4 2 0 0 1 2 2 2 0 0 0 0 0 0 0 0 0 0 0 0 0 0 0 0 0 0 0 0
0 0 0 2 1 0 0 0 0 0 0 0 1 7 15 15 12 11 7 2 0 0 1 4 8 9 4 1 0 0 1 2 4 4 3 3 3 1 0 0 0 0 1 1 0 0 0 0 0 0 0 0 0 0 0 0 0 0 0 0 0 0 0
0 0 0 2 4 5 11 10 1 0 0 0 2 3 5 2 2 2 2 1 2 2 0 0 2 6 5 4 4 5 4 2 2 4 4 4 2 1 1 2 2 0 0 0 1 1 0 0 0 0 0 0 0 0 0 0 0 0 0 0 0 0 0
4 1 1 0 8 13 5 2 1 1 1 0 0 2 0 0 0 0 0 0 0 0 2 2 3 6 12 10 6 4 8 11 8 3 1 1 1 1 1 4 4 4 4 3 1 1 1 0 0 0 0 0 0 0 0 0 0 0 0 0 0 0 0
4 2 2 4 4 4 3 2 0 1 0 10 3 7 1 0 0 1 0 0 0 1 3 6 6 5 10 13 13 10 10 9 8 8 7 4 6 7 5 4 2 1 4 3 4 4 4 2 0 0 0 0 0 0 0 0 0 0 1 0 0 0 0
2 3 9 6 4 3 2 1 0 1 0 0 0 0 0 1 1 1 1 2 3 5 7 10 12 10 7 6 7 6 2 1 0 0 0 1 5 8 7 5 4 1 0 3 5 3 3 1 1 0 0 0 0 0 0 0 0 0 2 1 0 0 0
2 2 2 1 0 1 0 0 0 2 2 5 2 0 0 1 5 3 2 1 0 3 6 7 8 9 10 11 10 8 3 3 4 5 2 0 1 2 7 6 2 0 0 0 1 4 3 0 3 1 0 0 0 0 0 0 0 0 0 0 0 0 0
6 5 5 9 6 0 2 2 1 4 6 0 0 2 0 0 0 1 2 2 2 3 6 7 6 6 5 6 5 6 7 11 13 13 10 2 1 1 0 2 3 0 0 0 0 0 3 3 5 5 2 0 0 0 0 0 0 0 0 0 2 1 1
1 3 8 5 3 3 3 1 1 1 0 0 0 0 0 0 3 2 3 5 6 8 6 3 1 1 2 1 1 2 7 10 18 25 18 9 4 2 0 0 0 0 1 0 0 0 2 2 2 5 5 2 0 0 0 0 0 0 0 2 6 10 7
3 2 1 2 1 2 0 0 0 0 0 0 3 0 0 1 2 2 3 4 4 4 6 6 3 1 4 4 2 4 6 7 9 10 11 9 5 5 4 1 0 2 2 2 1 0 0 4 4 2 3 4 1 0 0 0 0 0 0 1 5 8 8
3 3 1 2 6 3 7 5 6 4 1 1 5 9 11 10 13 12 7 4 5 7 5 3 2 3 4 5 5 7 6 4 3 6 9 7 6 5 3 0 0 0 2 1 0 0 0 2 4 2 3 3 2 0 0 0 0 0 0 0 0 5 10
14 6 5 5 4 7 10 10 9 9 6 2 2 2 2 2 3 3 3 5 2 0 2 2 0 2 3 3 3 2 0 2 3 1 2 5 4 2 0 0 0 0 4 2 0 0 0 1 2 0 0 1 0 0 0 0 0 0 0 0 0 4 7
4 6 6 4 1 0 2 6 5 2 0 0 0 2 4 0 0 4 7 7 6 6 4 3 3 0 0 0 1 0 1 7 8 4 0 1 0 0 0 2 1 1 2 2 0 0 1 1 3 0 0 0 0 0 0 0 0 0 0 0 0 6 6
7 8 7 4 1 0 1 4 3 0 0 0 1 5 5 1 1 4 5 3 2 2 1 1 1 4 0 0 1 2 2 3 8 4 0 0 0 0 0 0 0 0 0 0 0 0 1 3 5 0 0 0 0 0 0 0 0 0 0 0 0 0 0
4 1 0 0 0 0 0 1 4 3 2 1 0 3 4 6 3 7 2 0 0 0 0 0 0 2 1 0 1 2 5 7 6 2 0 1 1 1 1 0 0 0 0 0 0 0 2 1 0 0 0 0 0 0 0 0 0 0 0 0 0 0 0
9 6 2 1 2 2 1 7 8 6 2 0 0 2 4 5 5 7 0 0 0 0 0 0 0 0 0 2 3 6 6 5 1 0 0 0 1 2 1 0 0 0 0 0 0 0 0 0 0 2 1 0 0 0 0 0 0 0 0 0 0 0 0
8 9 6 6 5 6 16 7 1 0 0 0 0 0 2 3 2 4 0 0 0 0 0 0 0 0 1 3 6 8 10 4 1 0 0 1 2 0 0 2 3 1 0 0 0 0 0 0 2 1 0 0 0 0 0 0 0 0 0 0 0 0 0
4 13 9 9 14 25 22 6 1 0 0 0 0 0 0 0 2 0 0 0 0 0 0 1 0 1 3 5 7 2 2 0 0 0 1 1 0 0 0 0 1 2 0 0 0 0 0 0 0 0 0 0 0 0 0 0 0 0 0 0 0 0 0
2 2 2 4 5 3 5 7 1 0 0 0 0 0 1 0 0 0 0 0 0 0 0 2 0 0 3 2 2 1 0 0 1 0 0 0 0 0 0 0 0 0 0 0 0 0 0 0 0 0 0 0 0 0 0 0 0 0 0 0 0 0 0
0 0 0 0 2 1 1 3 0 0 0 0 0 0 0 0 0 0 0 0 0 0 0 1 2 3 3 2 1 1 0 0 0 0 0 0 0 0 0 0 0 0 0 0 0 0 0 0 0 0 0 0 0 0 0 0 0 0 0 0 0 0 0
0 0 0 0 2 2 0 1 0 0 0 0 0 0 0 0 0 0 0 0 0 0 0 0 1 2 1 1 0 0 0 0 0 0 0 0 0 0 0 0 0 0 0 0 0 0 0 0 0 0 0 0 0 0 0 0 0 0 0 0 0 0 0
2 1 0 0 0 0 0 0 0 0 3 2 1 1 0 0 0 0 0 1 0 0 0 0 0 0 0 0 0 0 0 0 0 0 0 0 0 0 0 0 0 0 0 0 0 0 0 0 0 0 0 0 0 0 0 0 0 0 0 0 0 0 0
4 2 2 3 8 4 0 0 2 5 2 1 1 0 0 0 0 3 4 0 0 0 0 0 0 0 0 0 0 0 0 0 0 0 0 0 0 0 0 0 0 0 0 0 0 0 0 0 0 0 0 0 0 0 0 0 0 0 0 0 0 0 0
1 2 6 7 9 5 2 3 3 2 2 0 4 1 1 1 3 5 3 0 0 0 0 0 0 0 0 0 0 0 0 0 0 0 0 0 0 0 0 0 0 0 0 0 0 0 0 0 0 0 0 0 0 0 0 0 0 0 0 0 0 0 0
0 0 2 10 10 17 10 2 0 0 1 1 3 2 3 3 6 5 3 0 0 0 0 0 0 0 0 0 0 0 0 0 0 0 0 0 0 0 0 0 0 0 0 0 0 0 0 0 0 0 0 0 0 0 0 0 0 0 0 0 0 0 0
0 0 1 4 10 17 11 8 1 0 0 5 5 5 7 6 7 6 0 0 0 0 0 0 0 0 0 0 0 0 0 0 0 0 0 0 0 0 0 0 0 0 0 0 0 0 0 0 0 0 0 0 0 0 0 0 0 0 0 0 0 0 0
0 0 1 2 4 15 13 9 4 0 1 11 11 10 6 2 0 0 0 0 0 0 0 0 0 0 0 0 0 0 0 0 0 0 0 0 0 0 0 0 0 0 0 0 0 0 0 0 0 0 0 0 0 0 0 0 0 0 0 0 0 0 0
0 0 0 1 1 2 10 14 8 5 4 6 3 1 0 0 0 0 0 0 0 0 0 0 0 0 0 0 0 0 0 0 0 0 0 0 0 0 0 0 0 0 0 0 0 0 0 0 0 0 0 0 0 0 0 0 0 0 0 0 0 0 0

ECMWFFLT1_con_mucape_030.txt.gz
CAPE
16 13 6 2 1 0 0 0 0 0 0 2 4 10 10 7 4 3 2 1 0 3 8 9 2 12 7 1 3 15 15 8 3 2 1 0 0 0 0 0 0 0 0 0 0 0 0 0 0 0 0 0 0 1 0 0 0 0 0 0 0 0 0
12 12 12 9 7 4 1 0 0 0 0 0 5 8 6 7 7 1 2 0 0 0 0 3 3 1 4 0 0 1 14 10 4 2 2 1 0 0 0 0 0 0 0 0 0 0 0 0 0 0 0 0 0 1 0 0 0 0 0 0 0 0 0
14 10 4 9 14 12 7 2 0 0 0 2 5 9 9 8 10 7 1 0 0 0 0 2 2 0 0 0 0 0 5 10 4 0 0 0 0 0 0 0 0 0 0 0 0 0 0 0 0 0 0 0 0 1 0 0 0 0 0 0 0 0 0
17 7 8 6 6 14 18 10 4 1 1 4 1 9 9 8 8 5 3 0 0 0 0 0 3 1 0 0 0 0 0 5 7 2 0 0 0 0 0 0 0 0 0 0 0 0 0 0 0 0 0 0 0 0 0 0 0 0 0 0 0 0 0
4 15 6 0 0 0 4 4 3 3 3 3 2 2 1 2 2 3 4 4 2 0 0 0 0 0 0 2 0 0 0 0 7 4 1 0 0 0 0 0 0 0 0 0 0 0 0 0 0 0 0 0 0 0 0 0 0 0 0 0 0 0 0
11 0 0 0 0 0 3 6 3 0 0 0 0 0 0 0 0 1 6 8 7 1 0 0 0 0 2 2 0 0 0 0 1 1 3 2 2 0 0 0 0 0 0 0 0 0 0 0 0 0 0 0 0 0 0 0 0 0 0 0 0 0 0
0 0 0 0 0 0 0 1 0 0 0 0 0 0 0 0 0 0 2 7 12 4 2 8 3 0 8 4 0 0 0 0 0 0 0 1 1 2 1 0 0 0 0 0 0 0 0 0 0 0 0 0 0 0 0 0 0 0 0 0 0 0 0
0 0 0 0 0 0 0 0 0 0 0 0 0 0 0 0 0 0 1 8 13 7 2 8 4 3 7 3 0 0 0 0 0 0 0 0 1 2 3 3 2 0 0 0 0 0 0 0 0 0 0 0 0 0 0 0 0 0 0 0 0 0 0
0 0 0 0 0 0 0 0 0 0 0 0 0 0 0 0 0 0 0 5 9 9 4 1 0 3 2 6 8 5 1 4 2 1 0 0 0 2 3 3 4 4 1 0 0 0 0 0 0 0 0 0 0 0 0 0 0 0 0 0 0 0 0
0 0 1 1 0 0 0 0 0 0 0 0 0 0 0 0 0 0 0 0 4 8 7 2 0 0 2 8 17 12 6 4 5 3 0 0 0 0 1 1 2 2 2 1 0 0 0 0 0 0 0 0 0 0 0 0 0 0 0 0 0 0 0
0 0 0 0 2 1 1 0 0 0 0 0 2 10 4 0 0 0 0 0 5 9 7 4 4 2 0 0 12 17 11 5 4 2 4 1 0 0 0 0 0 0 0 0 0 0 0 0 0 0 0 0 0 0 0 0 0 0 0 0 0 0 0
0 0 0 1 2 2 2 2 1 2 2 2 5 8 12 4 0 0 0 0 1 4 7 7 6 4 3 0 1 8 12 11 8 4 5 6 4 2 2 2 0 0 0 0 0 0 0 0 0 0 0 0 0 0 0 0 0 0 0 0 0 0 0
0 0 2 2 2 1 0 0 1 3 3 5 7 10 20 11 1 0 0 0 1 2 1 1 2 1 1 2 0 2 8 14 9 0 2 7 8 5 4 5 4 2 0 0 0 0 0 0 0 0 0 0 0 0 0 0 0 0 0 0 0 0 0
1 1 1 3 4 3 1 2 2 4 6 6 1 0 1 0 0 0 0 0 0 0 1 1 0 0 0 2 7 11 13 14 15 8 4 0 2 3 5 6 4 2 0 0 0 0 0 0 0 0 0 0 0 0 0 0 0 0 0 0 0 0 0
0 0 1 2 1 3 2 0 2 2 4 4 2 2 0 1 0 0 0 0 0 0 0 1 1 0 0 1 2 7 12 14 12 7 2 0 2 3 0 0 0 0 0 0 0 0 0 0 0 1 0 0 0 0 0 0 0 0 0 0 0 0 0
4 3 3 4 2 3 2 2 7 7 4 1 1 0 0 1 0 0 0 0 2 4 5 4 2 2 5 4 3 2 5 6 4 2 0 0 0 0 0 0 0 0 1 1 1 1 1 1 0 0 1 2 1 0 0 0 0 0 0 0 0 0 0
1 1 2 2 2 1 2 2 0 2 2 1 1 1 1 2 2 0 0 0 1 2 2 3 4 7 9 10 9 8 8 6 2 3 5 4 2 2 1 0 0 0 0 0 0 1 2 2 1 0 0 3 3 1 0 0 0 0 0 0 0 0 0
0 2 1 0 0 0 0 0 0 0 2 1 0 0 0 0 0 0 0 0 0 0 0 0 0 0 3 8 10 7 6 3 0 4 6 4 1 2 8 9 5 1 2 0 0 1 3 2 2 0 0 0 1 3 2 0 0 0 0 0 0 0 0
14 12 3 2 0 0 0 1 0 2 3 4 3 1 1 0 0 0 1 0 0 0 0 0 0 0 0 1 3 6 9 8 3 3 1 5 10 8 6 11 8 1 1 0 0 0 1 0 1 0 1 0 0 1 3 1 0 0 0 0 0 0 0
0 1 2 2 1 0 3 4 2 5 7 8 8 2 0 1 4 4 3 2 2 2 3 10 11 7 0 0 0 2 5 3 0 1 2 4 10 13 9 7 4 0 1 0 2 3 0 0 0 2 1 0 0 0 2 2 1 0 0 0 0 0 0
2 0 6 6 5 6 3 1 2 2 2 3 2 2 2 1 1 0 1 0 2 4 3 1 2 5 11 10 4 2 1 8 8 6 4 3 2 1 0 3 0 0 0 0 7 7 2 0 0 1 0 0 0 0 0 0 2 0 0 1 0 0 0
2 1 1 6 1 0 0 1 0 0 0 2 8 4 3 1 1 0 0 0 1 3 7 7 4 4 4 6 3 4 3 1 2 5 7 4 0 1 2 0 0 0 0 1 6 9 3 0 0 1 1 0 0 0 0 0 0 0 0 0 0 0 0
0 1 3 9 0 0 0 0 0 0 1 4 5 3 2 3 2 3 5 2 1 0 0 2 5 3 2 3 4 4 2 0 1 1 2 1 2 2 2 1 4 4 1 1 2 7 3 0 0 1 2 0 0 0 0 0 3 2 0 0 0 0 0
0 0 1 4 1 3 2 0 1 0 1 1 0 0 3 5 5 8 2 2 1 0 0 0 0 0 1 1 2 3 3 0 0 2 2 2 9 1 3 5 5 10 10 4 1 5 5 2 0 0 1 0 0 0 0 2 1 0 0 0 0 0 0
0 0 1 0 1 3 5 6 0 0 0 0 0 0 3 4 5 5 8 2 1 0 0 0 0 0 1 1 2 3 2 0 0 0 0 0 0 0 0 1 4 9 5 0 0 2 6 4 1 0 0 0 0 0 0 0 1 0 0 0 0 0 0
0 1 3 4 0 0 1 2 0 0 0 0 0 0 0 0 3 3 3 0 0 0 0 1 0 0 1 0 0 0 0 1 0 0 0 0 0 0 0 3 4 2 0 0 0 0 0 0 0 0 0 0 0 0 0 0 0 0 0 0 0 0 0
0 0 4 6 1 0 0 0 0 0 2 0 1 0 1 0 0 0 0 0 0 1 1 2 1 1 1 0 1 0 0 1 0 0 0 0 0 0 1 0 0 0 0 0 0 0 0 0 0 0 0 0 0 0 0 0 0 0 0 0 0 0 0
0 0 0 1 3 2 0 0 0 0 0 0 1 1 4 1 0 0 0 0 0 2 3 2 1 2 2 1 1 0 0 0 0 0 0 0 0 0 0 0 0 0 0 0 0 0 0 0 0 0 0 0 0 0 0 0 0 0 0 0 0 0 0
0 0 1 1 2 1 0 0 0 1 2 0 1 1 1 0 0 0 0 0 1 1 0 2 3 2 1 1 1 0 1 0 0 0 0 0 0 0 0 0 0 0 0 0 0 0 0 0 0 0 0 0 0 0 0 0 0 0 0 0 0 0 0
4 3 1 5 2 0 0 0 0 0 3 6 3 0 0 2 1 1 0 2 0 0 1 1 2 3 2 1 0 0 1 0 0 0 0 0 0 0 0 0 0 0 0 0 0 0 0 0 0 0 0 0 0 0 0 0 0 0 0 0 0 0 0
8 6 5 6 1 0 2 9 6 3 3 2 1 2 0 1 3 2 3 1 0 0 0 0 1 2 1 1 1 0 0 0 0 0 0 0 0 0 0 0 0 0 0 0 0 0 0 0 0 0 0 0 0 0 0 0 0 0 0 0 0 0 0
3 4 5 6 2 0 1 2 3 2 1 2 3 1 2 3 5 5 3 0 0 0 0 0 0 0 0 0 1 0 0 0 0 0 0 0 0 0 0 0 0 0 0 0 0 0 0 0 0 0 0 0 0 0 0 0 0 0 0 0 0 0 0
0 2 5 5 5 7 6 4 2 2 5 7 3 5 5 6 7 4 0 0 0 0 0 0 0 1 0 0 0 0 0 0 0 0 0 0 0 0 0 0 0 0 0 0 0 0 0 0 0 0 0 0 0 0 0 0 0 0 0 0 0 0 0
0 1 4 3 3 4 4 2 2 3 7 8 8 10 7 3 2 2 0 0 0 1 0 1 2 2 1 0 0 0 0 0 0 0 0 0 0 0 0 0 0 0 0 0 0 0 0 0 0 0 0 0 0 0 0 0 0 0 0 0 0 0 0
0 0 2 2 0 2 2 2 6 1 4 10 6 3 1 0 0 0 0 0 1 2 0 1 0 0 0 1 0 0 0 0 0 0 0 0 0 0 0 0 0 0 0 0 0 0 0 0 0 0 0 0 0 0 0 0 0 0 0 0 0 0 0
0 0 0 1 0 0 2 3 0 3 7 4 2 1 0 0 0 0 0 0 0 0 0 0 0 0 0 0 0 0 0 0 0 0 0 0 0 0 0 0 0 0 0 0 0 0 0 0 0 0 0 0 0 0 0 0 0 0 0 0 0 0 0

ECMWFFLT1_con_mucape_036.txt.gz
CAPE
0 0 0 0 0 0 0 0 1 6 8 11 11 8 16 18 17 8 17 11 23 27 18 13 3 7 7 7 11 11 12 10 4 3 4 3 3 1 0 0 3 23 16 3 0 0 0 0 0 0 0 0 0 0 0 0 0 0 0 0 0 0 0
0 0 0 0 0 0 0 0 1 5 4 5 3 3 4 14 12 17 17 9 8 22 18 15 9 7 11 12 10 5 3 3 7 6 2 2 2 1 0 0 0 1 19 11 0 1 0 0 0 0 0 0 0 0 0 0 0 0 0 0 0 0 0
0 0 0 0 3 1 0 0 2 3 4 6 5 1 1 4 7 7 5 1 4 8 5 5 6 7 9 10 5 7 13 1 10 8 4 3 3 3 2 2 4 0 4 10 6 0 0 0 0 1 0 0 0 0 0 0 0 0 0 0 0 0 0
5 3 0 1 2 1 0 0 0 2 6 8 6 11 14 15 12 4 5 2 1 2 5 7 8 10 6 5 6 4 8 6 10 7 6 6 8 6 4 3 1 4 1 0 11 0 0 0 0 0 0 0 0 0 0 0 0 0 0 2 1 2 2
0 0 0 0 1 0 0 0 0 0 4 11 10 11 17 23 14 9 3 1 0 1 2 4 6 11 9 4 6 6 5 6 6 6 6 6 10 9 7 5 3 0 0 2 1 0 0 0 0 0 0 0 0 0 0 0 0 1 2 2 3 0 2
0 0 0 0 0 0 0 0 0 0 1 8 11 10 16 19 19 6 9 4 1 0 2 1 3 8 9 6 8 10 11 9 6 6 6 4 9 11 10 7 3 2 0 0 1 0 0 0 0 0 0 0 0 0 0 0 0 1 4 2 1 0 0
0 0 0 0 0 0 0 0 0 0 0 1 7 11 10 17 18 13 8 5 2 1 3 6 4 2 2 1 2 6 10 10 8 6 3 2 6 10 10 6 3 2 1 0 0 0 0 1 0 0 0 0 0 0 0 0 0 0 0 0 0 0 0
0 0 0 0 0 0 0 0 0 0 0 0 2 6 9 15 16 15 17 13 4 2 2 0 0 0 0 0 0 2 3 8 5 3 1 1 4 5 5 3 1 1 2 3 1 0 0 0 1 0 0 0 0 0 0 0 0 0 0 0 0 0 0
0 0 0 0 0 0 0 0 0 0 0 0 0 1 0 9 10 10 12 13 12 8 3 0 0 0 0 0 0 1 1 2 3 3 1 0 2 3 2 3 2 1 1 2 3 1 0 0 1 6 1 0 0 0 0 0 0 0 0 0 0 0 0
0 0 0 0 0 0 0 0 0 0 2 4 1 0 1 3 5 7 9 9 10 9 5 0 0 0 0 0 0 0 0 1 1 2 7 6 3 1 1 2 1 2 2 3 6 5 0 0 4 5 5 2 0 0 0 0 0 0 0 0 0 0 0
0 0 0 0 0 0 0 0 0 3 8 10 13 8 6 6 3 5 5 7 7 4 3 0 0 0 0 0 0 0 0 0 2 1 6 8 8 3 0 0 0 0 0 0 11 12 7 0 1 2 3 1 6 6 0 0 0 0 0 0 0 0 0
0 0 0 0 0 0 0 0 3 10 12 15 17 17 12 13 11 7 6 4 3 2 1 0 0 0 0 0 0 0 0 0 2 5 6 8 10 8 1 0 0 0 1 5 13 14 13 7 0 1 2 4 2 3 1 0 0 0 0 0 0 0 0
0 0 0 0 0 0 0 0 2 8 11 14 21 23 18 15 19 15 11 8 5 1 0 0 0 0 0 0 0 0 0 3 4 4 6 0 0 6 3 2 0 0 0 2 10 9 11 11 2 0 0 2 7 10 5 0 0 0 0 0 0 0 0
0 0 2 1 0 0 0 0 0 4 9 11 15 20 19 14 17 20 16 12 9 6 2 0 0 0 0 0 0 0 0 2 10 8 5 2 2 3 2 6 5 3 3 5 5 7 8 8 4 0 0 0 0 8 12 4 0 2 3 0 0 0 0
2 0 1 2 2 1 0 0 2 5 7 10 12 16 16 13 13 14 14 12 9 6 3 1 2 2 2 1 0 0 0 0 2 5 7 7 7 5 4 6 6 6 5 5 5 5 7 8 8 0 0 0 0 0 0 0 3 2 1 0 0 0 0
1 2 2 2 2 5 5 3 1 3 5 7 8 8 8 7 10 11 11 10 7 4 3 2 1 0 1 2 2 0 0 0 2 1 8 8 8 6 6 8 8 4 4 3 3 3 2 5 8 3 0 0 0 0 0 0 0 0 1 0 0 0 0
0 0 0 0 2 0 0 4 1 1 7 7 8 3 2 3 4 4 5 10 9 6 4 3 1 0 1 0 0 0 0 1 2 8 8 10 6 9 12 13 14 8 15 10 1 0 0 0 0 0 0 0 0 0 0 0 1 10 20 21 12 3 0
1 0 0 0 0 0 1 0 0 6 2 5 4 1 5 6 4 2 1 3 6 7 6 4 4 6 5 1 1 0 0 2 3 1 5 8 4 10 16 22 23 18 11 14 9 2 1 1 0 0 0 0 0 0 0 0 0 0 0 7 12 15 1
0 0 0 0 0 0 0 0 0 3 4 5 5 2 2 3 2 1 2 1 1 1 1 3 6 9 8 4 2 0 1 3 4 1 0 0 1 4 8 12 19 15 7 2 7 9 2 3 2 0 0 0 0 0 0 0 0 0 0 0 0 0 0
0 0 0 0 0 0 0 0 0 0 2 4 4 2 4 6 6 9 7 6 7 7 5 5 6 7 6 4 5 4 4 3 1 0 1 2 3 1 2 2 3 3 1 0 2 6 3 1 4 2 1 0 0 0 0 0 0 0 0 2 12 4 0
0 0 0 0 0 0 0 0 0 0 0 3 3 1 2 0 1 2 2 4 5 2 3 5 6 6 7 8 9 9 5 4 0 0 0 3 8 1 0 2 7 4 2 2 1 4 3 0 0 1 0 0 0 0 0 0 1 0 0 0 0 0 0
0 0 0 0 0 1 1 1 4 5 2 3 2 0 2 2 4 4 2 1 0 0 0 1 1 2 8 9 6 10 1 0 0 0 0 1 5 5 1 3 5 5 3 5 3 0 4 1 1 2 2 2 3 1 1 1 1 2 1 0 0 0 0
0 0 0 0 0 0 1 4 6 9 7 8 6 4 4 8 8 12 7 5 4 4 3 1 0 0 1 2 8 10 4 0 0 1 0 0 1 3 2 2 1 1 2 9 8 2 0 3 2 2 4 6 5 2 1 1 1 1 1 0 0 0 0
0 0 0 0 0 0 0 2 8 5 2 1 3 4 12 15 9 4 0 5 5 10 12 9 2 0 0 0 1 5 5 4 4 1 0 0 1 0 0 1 0 2 3 5 7 4 1 0 1 0 1 4 4 3 1 0 2 0 0 1 1 1 0
1 1 2 2 1 0 1 2 2 1 1 1 10 14 11 12 3 2 2 7 8 9 6 5 6 6 3 3 3 5 7 5 6 4 0 4 3 1 0 0 0 1 3 2 2 5 6 4 0 0 0 0 0 1 0 1 1 1 0 1 5 3 2
0 0 2 3 2 3 5 5 0 1 3 6 4 2 2 5 2 3 7 6 5 4 2 2 3 4 3 4 6 5 1 0 3 6 1 2 15 20 7 2 0 1 2 3 2 4 6 5 5 4 0 0 0 1 0 1 4 1 0 0 2 2 1
0 0 1 2 1 1 2 2 0 3 4 2 1 0 1 0 1 1 1 0 0 0 0 1 1 1 3 5 7 5 1 0 0 2 2 0 2 15 26 16 4 0 0 0 0 0 0 1 4 6 6 1 0 1 0 0 2 2 0 0 0 2 2
0 0 1 0 0 0 0 3 3 2 3 2 1 0 0 2 1 0 0 0 1 2 3 2 1 2 4 6 6 5 4 3 1 0 0 0 0 0 0 8 12 0 0 0 0 0 1 4 7 9 6 0 0 0 0 2 3 2 0 0 0 1 1
1 1 0 0 0 1 0 3 2 0 1 3 3 6 1 0 0 0 1 2 1 1 0 2 1 0 0 1 3 2 3 3 2 1 0 0 0 1 2 2 0 1 1 1 1 2 0 2 5 4 0 2 2 0 0 0 3 3 0 0 0 0 0
6 6 3 0 2 1 1 3 4 7 10 1 1 2 2 2 3 4 1 1 1 0 2 2 1 1 1 1 0 0 0 0 0 1 1 0 0 0 0 0 0 1 3 1 0 1 4 3 2 4 7 7 3 1 2 1 2 2 1 0 0 0 0
11 8 8 6 2 5 0 3 6 9 6 7 5 6 5 5 6 5 3 0 2 1 1 0 0 0 0 0 3 2 0 2 0 0 0 0 0 0 0 0 0 0 0 0 1 0 0 0 0 0 0 0 0 0 1 0 0 0 0 0 0 0 0
8 8 9 9 4 0 0 0 2 7 9 6 6 6 6 6 7 6 5 3 2 0 2 3 2 2 3 5 5 3 0 0 0 0 0 0 0 0 0 0 0 0 0 0 0 0 0 0 0 0 0 0 0 0 0 0 0 0 0 0 0 0 0
3 7 9 9 9 8 3 2 3 6 6 4 5 3 3 2 1 1 1 1 0 0 0 1 2 2 3 3 1 0 0 1 4 4 1 0 0 0 0 0 0 0 0 0 0 0 0 0 0 0 0 0 0 0 0 0 0 0 0 0 0 0 0
0 4 6 7 9 12 9 6 6 7 7 6 4 2 1 0 0 0 0 1 2 1 0 0 0 1 2 2 0 0 1 2 5 4 2 0 0 0 0 0 0 0 1 1 1 1 0 0 0 0 0 0 1 1 0 0 0 0 0 0 0 0 0
0 0 2 6 6 8 10 8 7 6 6 4 2 1 0 0 0 0 0 0 0 1 0 0 0 0 0 0 0 2 4 3 3 2 0 0 0 0 0 0 0 1 1 1 0 0 0 0 0 0 1 1 2 0 0 0 0 0 0 0 0 0 0
1 2 1 5 4 6 7 8 8 7 6 7 5 2 0 0 0 0 0 0 0 0 0 0 0 0 1 3 4 2 2 1 0 0 0 0 0 0 0 0 0 0 0 0 0 0 0 0 0 0 1 1 0 0 0 0 0 0 0 0 0 0 0

ECMWFFLT1_con_mucape_042.txt.gz
CAPE
5 5 5 3 0 0 0 0 0 0 0 0 0 0 0 0 0 0 0 0 0 0 1 7 12 15 14 15 18 13 10 2 4 6 0 0 0 4 13 13 5 27 16 4 10 4 2 2 2 1 0 0 5 8 11 15 6 8 9 11 18 17 6
9 7 3 4 4 3 2 6 7 4 0 0 0 0 0 0 0 0 0 0 0 1 24 15 19 19 17 20 22 24 19 4 8 1 2 6 3 11 3 16 34 6 22 16 16 6 1 4 2 2 0 0 3 3 13 18 11 13 16 9 8 15 12
12 13 10 10 6 4 6 13 18 18 15 12 10 8 6 4 1 0 0 0 10 22 17 5 3 14 20 21 21 24 20 9 6 3 3 4 8 8 3 12 35 20 38 29 12 8 4 6 4 0 2 1 2 1 6 12 20 24 7 2 3 10 12
7 8 9 8 8 8 3 2 4 3 6 4 4 16 22 21 19 17 18 24 22 17 5 3 2 3 14 24 22 17 14 7 6 5 5 10 13 16 6 11 28 21 22 7 15 25 7 2 6 6 3 3 0 2 0 3 9 15 3 0 0 3 8
7 6 7 5 4 4 4 4 4 4 3 2 4 4 2 3 3 2 2 6 9 4 3 4 5 3 4 18 18 15 9 2 8 6 8 8 6 13 15 31 34 7 16 22 7 28 13 2 8 2 2 3 3 3 4 0 2 10 19 1 0 0 0
7 7 5 4 1 2 2 2 2 3 3 1 0 2 0 0 0 0 2 4 2 5 8 6 4 3 2 3 18 14 3 5 21 24 27 13 14 22 15 13 17 1 14 8 0 6 30 9 7 7 2 0 3 4 4 6 3 0 4 5 0 0 0
6 5 4 4 4 3 2 2 2 2 2 0 0 0 0 0 0 0 0 0 0 2 3 5 4 3 3 5 6 9 0 1 10 44 38 2 22 5 28 26 24 22 12 13 24 10 5 15 2 4 15 2 0 3 3 8 9 11 5 1 0 0 0
4 5 5 5 5 3 3 3 3 2 1 1 1 1 0 0 0 0 0 0 0 1 0 3 3 3 4 8 11 8 1 8 9 14 21 2 3 4 35 27 20 13 15 20 23 17 5 0 0 0 7 9 6 7 5 5 6 13 10 12 3 1 2
4 4 4 4 3 3 3 4 3 3 2 3 2 1 0 0 0 0 0 0 0 0 2 2 2 4 1 3 4 2 0 12 2 3 4 3 20 24 26 22 13 7 5 8 2 7 0 0 1 0 7 6 5 3 9 4 7 11 8 11 9 1 0
2 3 3 3 2 2 3 3 3 5 8 10 4 2 1 0 0 0 0 0 0 0 0 2 2 0 0 1 4 4 2 6 7 3 4 16 8 11 19 21 4 2 17 1 6 6 3 14 3 3 2 6 4 3 4 3 2 11 10 9 8 6 7
2 2 2 2 1 2 2 2 2 7 12 16 21 14 5 5 3 0 0 0 0 0 0 1 0 2 1 1 2 5 1 2 11 12 4 0 0 3 13 12 10 17 12 8 7 6 6 3 2 2 3 2 3 0 4 6 3 3 6 14 5 8 5
1 1 1 1 1 1 0 0 2 10 14 18 22 23 12 8 7 7 7 5 4 3 1 0 0 1 4 4 2 2 2 4 2 4 6 4 1 1 4 4 6 11 8 4 6 5 9 22 6 2 6 3 6 6 2 1 5 6 2 6 13 8 7
0 0 0 0 1 1 0 0 2 8 13 16 20 22 18 8 7 7 6 7 7 6 5 3 2 2 6 2 0 0 2 2 1 2 5 5 4 3 1 2 1 0 3 5 8 7 6 5 14 5 3 2 4 8 5 4 2 4 5 3 0 0 0
0 0 0 0 0 0 0 0 0 6 10 12 13 16 16 7 6 6 5 5 6 6 6 7 6 3 2 0 1 1 2 0 0 0 2 3 4 5 4 4 2 1 2 2 3 7 5 3 2 14 6 5 5 4 6 7 5 0 3 4 2 1 1
0 0 1 1 2 1 1 1 2 6 8 10 12 10 9 5 4 4 4 3 4 6 6 6 7 6 2 0 0 1 2 3 1 1 2 1 1 2 5 7 8 6 5 4 4 3 1 2 3 3 14 13 7 5 1 3 1 0 0 0 3 7 6
0 0 0 0 1 1 0 0 1 4 5 7 11 15 6 0 1 2 3 4 4 4 7 9 8 8 4 1 0 3 3 2 1 2 2 2 2 2 2 4 3 5 4 5 5 3 2 0 0 0 3 1 2 2 8 9 1 0 1 0 0 1 2
0 0 0 0 0 0 0 0 0 0 2 6 11 11 6 6 1 0 1 1 2 3 4 8 11 10 5 3 0 1 3 3 2 4 3 2 2 2 2 1 2 3 2 1 2 3 6 3 0 1 2 1 0 3 2 4 4 3 0 2 2 2 0
0 0 0 0 0 0 1 1 0 0 1 3 9 10 9 7 5 0 3 1 2 2 3 5 11 12 6 5 1 1 3 2 0 5 4 3 2 2 3 1 1 4 5 3 3 1 3 5 8 4 4 0 0 4 3 0 5 3 1 0 0 4 7
0 0 0 0 0 0 2 2 0 0 0 1 8 9 7 7 4 6 3 13 11 6 3 4 6 8 7 4 1 0 1 0 1 6 5 4 5 4 3 2 3 5 4 4 8 5 8 7 6 11 2 0 0 4 5 1 1 6 7 2 0 2 4
0 0 0 0 1 0 7 6 1 0 0 2 11 10 10 8 5 6 3 10 11 18 6 3 3 4 4 6 4 2 0 0 0 5 4 6 7 4 4 3 7 6 3 3 2 3 0 2 4 0 2 1 0 6 6 4 3 2 2 2 0 0 0
0 0 0 0 1 7 6 2 0 0 1 6 13 10 9 8 5 4 2 4 5 4 5 7 4 3 2 2 3 3 3 2 1 2 4 7 7 6 4 7 9 6 2 2 2 2 7 18 23 18 6 1 1 2 5 10 7 2 1 1 0 0 0
0 0 0 1 5 2 0 0 2 2 2 6 12 9 4 5 5 5 5 5 2 0 0 0 2 4 4 2 1 1 3 3 3 3 7 9 6 6 10 12 8 6 5 3 3 4 10 23 27 20 3 3 2 1 4 8 6 5 4 3 0 0 2
0 0 1 3 3 1 4 1 5 3 6 5 3 2 6 6 4 4 4 8 7 5 3 2 1 0 0 0 0 2 4 4 2 3 3 3 4 7 8 8 6 4 4 3 4 5 4 0 7 11 8 4 3 1 3 4 6 6 4 2 1 4 6
0 5 5 4 3 1 1 2 6 2 1 3 9 14 4 8 8 9 8 10 8 6 4 4 4 3 1 1 0 0 1 1 0 2 3 4 4 4 4 4 4 4 3 4 4 5 4 6 12 26 14 6 4 7 9 2 2 2 1 2 1 2 7
5 5 4 2 3 2 1 6 8 8 5 10 6 8 3 4 5 6 8 10 7 8 8 4 2 4 3 4 3 2 1 0 0 2 3 2 2 1 3 4 1 1 0 1 3 2 3 6 7 8 5 5 4 8 10 4 0 0 1 2 1 0 2
8 5 4 4 7 3 4 2 10 4 3 6 5 2 3 2 0 0 1 1 3 1 5 8 8 8 10 12 10 8 7 8 6 4 4 3 2 4 4 1 0 3 4 4 1 2 3 6 4 4 2 2 4 3 4 2 2 2 0 1 1 0 0
6 6 4 5 4 1 1 20 18 7 6 4 1 2 2 1 0 0 0 0 0 1 1 3 3 2 3 4 2 0 0 0 0 1 2 8 9 6 3 3 15 5 4 5 5 2 2 3 1 0 1 5 1 0 1 2 6 11 12 4 0 0 0
7 6 5 5 4 5 5 5 5 6 8 9 10 8 7 5 3 2 3 2 1 1 0 0 1 1 1 0 0 1 0 0 0 0 0 0 0 4 7 6 7 6 1 0 0 1 1 0 0 0 0 5 7 0 0 1 6 8 4 1 0 0 0
7 7 6 4 5 7 7 6 8 9 10 9 8 9 7 6 5 5 6 4 3 0 0 0 0 0 0 0 0 0 2 1 0 0 0 0 0 0 0 2 11 10 2 1 0 2 0 0 0 0 1 6 5 2 1 2 2 0 1 0 0 0 0
11 11 8 4 4 8 11 10 9 9 9 9 8 6 5 5 6 5 6 4 1 1 0 0 0 0 0 1 0 0 1 1 0 0 0 0 0 0 0 0 0 7 4 2 1 0 0 0 0 0 0 1 1 0 0 1 1 1 0 0 0 0 0
14 14 13 8 5 5 10 10 10 8 7 6 6 5 4 4 2 1 1 0 0 0 0 0 0 0 0 0 0 0 0 0 0 0 0 0 0 1 0 0 0 1 3 2 1 0 0 0 0 0 0 0 0 0 0 0 0 0 0 0 0 0 0
10 13 15 12 10 9 5 8 10 10 8 6 4 4 4 4 3 1 0 0 0 0 0 0 0 0 0 0 1 0 0 0 0 0 0 0 0 0 0 0 0 0 0 0 0 0 0 0 0 0 0 0 0 0 0 0 0 0 2 1 1 0 0
8 11 13 13 14 15 14 13 12 12 9 8 6 3 2 2 2 0 0 1 0 0 2 1 1 1 0 0 0 0 0 0 0 0 0 0 0 0 0 0 0 0 0 0 0 0 0 0 0 0 0 0 0 0 0 0 0 0 0 0 1 2 0
0 5 9 10 12 17 15 14 14 13 10 8 6 2 0 0 0 0 0 0 1 2 1 0 0 0 0 0 2 3 0 0 0 0 0 1 0 0 0 0 0 0 0 0 0 1 2 1 0 0 0 1 0 0 0 0 0 0 1 2 3 2 0
0 0 3 7 5 13 14 13 12 12 12 10 7 3 0 0 0 0 0 0 0 0 0 0 0 0 0 0 0 1 1 0 0 0 0 0 0 0 0 0 0 0 0 0 0 0 0 0 0 0 0 0 0 0 0 1 0 0 0 1 1 0 0
0 0 0 5 3 7 9 12 9 10 11 10 8 3 0 0 0 0 0 0 0 0 1 3 1 1 0 0 0 0 0 0 0 0 0 0 0 0 0 0 0 0 0 0 0 0 0 0 0 0 0 0 0 0 0 0 0 0 0 0 0 0 0

ECMWFFLT1_con_mucape_045.txt.gz
CAPE
5 8 7 8 9 6 8 8 6 5 7 4 0 0 0 0 2 2 2 2 0 4 9 10 13 15 16 17 20 11 11 10 4 3 9 7 2 2 3 2 4 2 1 0 0 0 0 0 4 12 0 0 0 0 0 0 0 0 0 0 0 1 4
6 6 8 9 10 9 9 8 8 8 7 5 8 6 6 3 0 0 0 0 0 1 3 2 1 4 10 11 12 25 26 16 13 13 12 13 8 2 0 0 4 4 4 1 0 0 0 0 6 6 0 0 0 0 0 0 0 0 0 0 0 2 8
5 6 5 6 5 6 6 7 7 5 9 11 12 10 9 7 8 9 6 6 4 2 4 4 4 3 4 20 27 30 28 27 25 20 21 26 18 9 4 2 6 3 0 1 0 0 0 1 1 3 0 0 0 0 0 0 0 0 0 0 0 0 3
4 5 5 5 5 5 4 6 6 6 8 7 7 7 10 16 18 15 12 14 12 11 7 1 0 2 15 32 13 8 14 30 23 22 22 21 20 16 11 15 12 6 2 2 2 0 0 0 1 2 0 0 0 0 0 0 0 0 0 0 0 0 5
4 4 5 5 4 5 4 4 6 6 6 6 6 7 6 6 6 7 8 14 19 22 21 17 20 28 22 20 16 4 4 14 24 26 28 24 21 15 8 10 7 2 3 4 4 0 0 0 0 3 0 0 0 0 0 0 0 0 0 0 1 0 1
3 5 4 4 3 4 3 3 4 3 3 2 3 5 8 12 9 8 10 11 13 9 2 3 4 4 7 18 8 2 4 3 4 19 30 29 24 18 13 10 2 3 3 1 3 7 10 0 0 1 0 0 0 0 2 0 2 3 0 0 0 5 4
4 3 3 3 3 3 3 3 4 3 3 3 2 4 8 6 4 8 7 6 11 13 4 5 7 9 11 4 4 6 5 3 6 6 9 24 12 11 8 5 4 4 4 5 9 5 3 1 3 0 0 0 0 1 6 7 3 7 3 0 0 3 6
3 3 4 4 3 3 4 3 3 2 2 2 2 5 7 4 5 4 4 5 6 9 7 4 0 0 0 4 6 4 2 1 3 0 6 16 6 4 2 0 1 0 2 12 12 5 1 6 7 1 0 0 0 0 2 3 0 2 7 2 0 0 5
3 3 3 3 3 3 2 4 3 3 2 2 4 5 2 2 2 3 5 6 6 3 1 0 0 0 0 2 2 1 0 0 1 5 5 5 2 0 0 0 11 17 9 0 15 9 10 6 12 8 0 0 0 0 0 0 0 4 8 7 0 0 3
2 2 2 2 2 2 2 2 2 4 11 13 5 2 2 2 3 3 3 3 4 2 2 1 0 0 0 1 1 0 0 0 1 5 15 8 7 0 2 5 5 1 2 4 9 11 3 15 8 17 6 0 0 0 0 0 0 0 8 12 3 0 0
1 1 1 1 1 2 2 1 1 7 12 18 24 16 1 0 0 0 1 3 3 4 1 0 0 0 0 0 0 0 0 0 0 0 3 4 6 7 3 7 6 0 1 0 23 2 14 9 2 0 11 0 0 0 0 0 0 0 5 10 13 4 0
1 0 0 0 0 1 1 0 3 11 15 19 23 22 11 2 0 0 0 0 2 3 2 1 0 0 0 0 0 0 0 0 0 0 0 1 4 5 2 4 2 0 7 8 10 0 0 7 2 0 6 9 0 1 0 0 0 0 0 11 14 13 2
1 1 1 1 0 1 1 1 2 9 13 16 20 23 20 7 1 1 1 1 1 2 5 6 2 0 0 0 0 0 0 0 1 3 0 3 6 6 5 5 5 1 1 8 8 0 0 6 0 7 3 5 1 0 0 0 0 0 0 3 13 14 11
0 1 1 2 2 1 2 0 0 5 8 10 14 15 14 7 4 2 1 0 1 0 2 5 5 4 1 0 0 0 0 1 1 3 3 9 11 13 7 6 2 1 0 0 0 2 3 0 1 5 6 1 0 0 0 1 0 0 0 2 3 3 6
0 0 0 0 0 1 1 1 2 5 7 8 12 17 14 2 1 2 1 0 0 1 2 3 4 4 4 2 1 4 10 5 2 1 1 4 8 7 4 1 2 1 0 0 0 0 0 0 0 0 1 1 0 0 0 0 1 0 0 0 1 0 2
0 0 0 0 0 0 1 0 1 4 6 7 10 14 11 10 5 2 0 0 0 0 2 8 8 3 3 6 4 3 8 11 3 0 0 1 3 3 5 1 0 0 0 0 0 0 0 0 0 0 5 3 1 2 4 5 2 1 0 1 1 0 0
0 0 0 0 0 0 1 0 0 1 4 8 13 12 7 11 8 6 1 2 0 0 0 2 6 8 2 4 8 9 8 12 10 2 0 1 2 4 3 1 0 0 1 1 0 3 5 3 0 1 1 3 2 1 2 3 2 0 0 1 2 2 0
0 0 0 1 2 4 2 1 1 0 4 7 13 11 11 10 10 10 12 5 3 0 0 2 2 4 3 1 6 11 15 12 9 6 0 2 5 7 6 0 0 0 0 0 1 3 3 0 0 0 4 4 4 0 0 0 0 0 0 3 5 2 0
0 0 0 5 7 6 6 5 2 4 2 5 13 13 17 11 9 11 11 13 4 1 0 5 2 3 3 1 3 12 16 15 11 4 1 0 0 1 1 0 0 0 0 0 0 0 0 0 0 0 2 0 1 1 0 0 0 0 0 0 3 6 3
0 0 2 4 2 2 0 0 2 1 0 5 7 14 20 14 11 10 10 15 12 1 0 5 8 4 4 8 9 12 17 14 13 5 0 0 0 0 0 0 0 0 0 0 0 0 0 0 0 0 1 0 1 2 0 0 0 0 1 2 0 7 10
0 0 1 1 0 0 2 2 2 1 0 1 2 2 4 9 8 7 8 8 13 15 5 0 2 3 1 3 6 9 12 12 11 8 1 2 0 0 0 0 0 0 0 0 2 4 4 3 1 0 0 0 3 5 3 0 0 1 2 8 6 5 3
0 0 0 0 2 2 2 4 4 7 4 2 7 11 10 1 6 8 5 6 10 15 6 7 2 1 2 1 3 4 8 10 10 9 7 1 0 0 0 0 0 1 7 8 6 5 7 7 2 0 0 0 4 2 0 0 0 0 5 13 13 10 3
0 2 4 3 2 3 3 1 0 12 13 16 9 9 8 6 1 8 13 6 5 4 6 12 12 8 2 3 2 6 8 7 8 8 8 8 8 4 2 2 2 5 8 9 12 11 6 6 2 0 0 1 7 0 0 0 0 2 2 10 16 16 11
4 6 5 2 1 2 6 2 1 6 4 8 9 4 2 2 2 1 9 11 7 9 8 8 9 6 3 4 2 2 1 1 6 7 9 7 4 3 3 6 9 10 8 10 11 10 4 5 4 0 0 4 0 0 0 0 0 2 4 4 10 15 10
8 7 6 5 2 1 2 2 5 8 11 12 8 6 5 5 5 2 1 6 7 7 8 12 12 7 5 4 5 5 5 3 2 1 1 1 2 3 2 3 6 5 2 4 5 5 5 4 4 0 1 3 1 0 0 2 5 3 0 0 5 12 14
8 7 7 7 5 3 3 8 9 12 13 12 8 10 8 6 5 5 2 0 0 0 2 1 4 15 10 9 7 9 11 7 3 1 2 2 2 4 5 7 6 4 5 4 0 0 2 4 2 1 3 1 0 2 2 8 9 2 0 0 1 8 8
11 8 6 7 7 3 4 4 6 6 7 7 8 6 6 5 6 4 4 4 3 2 1 2 5 4 5 3 6 9 10 8 5 5 3 1 2 3 4 3 5 4 3 0 0 0 0 1 2 0 0 0 2 2 2 4 6 6 3 0 0 5 6
15 12 9 7 6 4 4 5 5 5 6 7 10 6 5 5 4 5 6 8 6 4 4 2 2 2 1 1 2 2 2 3 2 1 0 1 2 2 3 4 5 8 8 3 1 0 0 1 0 0 0 0 0 1 2 1 3 3 2 0 0 0 3
12 12 9 8 6 4 5 6 6 6 12 10 12 10 5 4 4 3 2 4 8 3 3 1 0 0 0 1 0 0 0 0 0 0 0 0 0 0 0 0 0 2 6 6 0 0 0 0 0 0 0 0 0 0 0 1 0 0 0 3 4 0 1
10 10 7 6 4 5 7 9 8 15 14 11 9 8 7 7 5 3 1 0 1 4 4 4 4 0 0 0 0 0 0 0 0 0 0 0 0 0 0 0 0 0 0 3 2 2 0 0 1 0 0 0 0 0 0 0 0 0 0 5 8 9 5
13 13 12 10 5 5 11 12 14 15 14 12 10 8 8 7 4 2 0 0 0 2 1 0 0 0 0 0 0 0 0 0 0 0 0 0 0 0 0 0 0 0 0 0 3 3 2 1 1 1 0 0 0 0 0 0 0 0 0 2 3 3 5
10 14 13 13 13 10 4 8 12 13 14 12 10 8 7 6 4 1 0 0 0 0 0 0 0 0 0 0 0 0 0 0 0 0 0 0 0 0 0 0 0 0 0 0 2 4 3 1 1 1 0 1 2 0 0 2 2 0 0 0 1 0 0
9 11 12 12 15 16 18 16 13 13 14 13 9 7 5 4 3 0 0 0 0 1 1 2 1 1 0 0 0 0 0 0 0 0 0 1 0 0 0 0 0 1 0 0 0 2 3 1 2 1 0 0 0 0 0 0 0 0 0 0 0 0 0
2 5 8 9 12 13 20 18 16 15 13 14 10 6 2 0 0 0 0 0 0 1 1 1 0 0 0 0 1 1 3 4 4 2 1 1 0 0 0 0 0 0 0 0 0 0 3 3 2 1 0 0 0 0 0 0 0 1 3 4 2 0 3
0 0 4 4 4 10 17 17 15 14 13 13 11 6 0 0 0 0 0 0 1 0 0 1 1 0 0 0 0 1 1 0 0 0 0 0 0 1 1 0 0 0 0 0 0 0 0 4 5 2 0 0 0 0 0 0 0 0 1 3 3 2 2
0 0 0 2 2 6 12 15 14 14 11 12 11 7 0 0 0 0 0 0 0 0 0 0 0 0 0 0 0 0 0 0 0 0 0 0 1 2 1 0 0 0 0 0 0 0 0 0 0 0 0 0 0 0 0 0 0 0 0 0 2 3 1

ECMWFFLT1_con_mucape_048.txt.gz
CAPE
0 0 1 1 3 2 4 5 4 4 3 3 4 4 3 1 0 0 0 0 0 0 0 3 4 2 1 0 0 0 2 10 17 15 9 2 0 0 3 7 12 14 9 1 0 0 0 0 0 4 3 0 0 0 0 0 0 0 0 0 0 0 0
1 1 1 1 1 1 3 5 6 5 6 5 3 3 3 3 2 1 0 0 0 0 1 0 0 0 0 1 9 9 9 12 19 34 32 20 1 0 0 1 7 12 13 7 5 2 0 0 0 0 0 0 0 0 0 0 0 0 0 0 0 0 0
2 2 1 2 1 2 1 2 3 5 5 5 5 4 4 4 6 8 8 7 2 0 0 1 2 2 2 5 8 12 18 28 31 33 25 19 12 7 2 0 4 9 9 6 3 2 0 0 0 0 0 0 0 0 0 0 0 0 0 0 0 0 0
2 2 2 2 2 2 2 2 4 4 4 4 4 4 5 7 9 13 18 18 14 14 8 1 0 0 1 0 0 1 2 5 9 16 23 16 11 8 6 12 22 17 10 7 5 2 2 0 0 0 0 0 0 0 4 0 0 0 0 0 0 0 0
2 2 2 2 2 2 2 2 2 3 4 4 3 4 4 4 4 4 6 11 16 19 17 16 12 5 1 0 0 0 0 0 0 28 30 9 6 2 0 4 16 28 28 20 10 3 1 3 2 0 0 0 0 0 3 2 0 0 0 0 0 0 0
2 3 2 2 2 2 2 2 2 2 1 2 1 1 1 1 3 4 3 2 0 0 1 6 16 38 32 33 16 4 0 0 0 20 17 2 1 6 8 6 11 19 20 15 10 10 7 4 3 0 0 0 0 0 6 3 0 0 0 0 0 0 0
1 2 2 2 2 2 2 2 2 2 2 2 2 1 1 1 0 1 5 9 7 3 1 0 4 7 18 18 10 9 13 12 21 18 4 4 4 2 7 9 13 20 20 14 9 3 2 1 0 0 0 0 0 0 3 5 0 0 0 0 0 0 0
2 1 1 1 2 1 1 2 2 2 3 2 1 0 1 0 0 0 1 2 3 5 5 3 0 0 0 0 2 4 4 7 8 6 0 2 0 3 11 9 10 20 23 20 15 10 4 0 0 0 0 0 0 9 9 5 0 0 0 0 0 0 0
2 2 2 2 1 1 1 2 2 2 1 1 0 0 0 0 1 1 2 2 2 1 2 3 4 2 0 0 0 9 10 8 9 1 0 0 0 1 0 3 13 8 12 10 12 11 10 10 5 0 0 0 0 0 0 0 0 0 0 0 0 0 0
1 3 2 2 1 1 2 2 2 4 12 13 3 0 0 1 0 0 0 0 2 2 4 4 3 2 9 5 1 1 6 13 15 16 5 2 1 2 3 11 15 12 8 6 4 1 1 3 0 0 0 0 0 0 0 0 0 0 0 0 0 0 0
1 2 2 3 3 2 1 1 0 8 17 20 25 14 0 0 0 0 0 1 0 0 0 0 0 1 4 8 5 1 0 1 4 6 5 12 11 6 4 10 17 13 12 4 3 2 2 3 1 0 0 0 0 0 0 0 0 0 0 0 0 0 0
0 0 1 2 3 4 3 1 2 15 19 23 24 22 12 2 0 0 1 2 2 2 2 1 0 0 0 0 0 0 0 0 0 6 9 7 1 0 3 12 15 15 11 7 4 1 1 0 0 0 0 0 0 0 0 0 0 0 0 0 0 0 0
0 0 0 0 1 1 1 0 3 13 18 20 23 26 19 3 0 0 0 1 0 1 2 1 2 1 0 0 2 4 0 0 0 0 0 0 1 0 3 13 18 18 16 8 6 4 4 6 3 0 0 0 1 2 0 0 0 0 0 0 0 0 0
0 0 0 0 0 0 0 0 1 9 14 16 19 20 13 1 0 0 0 0 0 0 1 1 2 1 0 0 0 0 0 0 0 0 0 0 1 2 2 8 14 10 9 5 4 6 8 4 3 0 0 0 0 2 1 0 0 0 0 0 0 0 0
0 0 0 0 0 0 0 0 2 9 12 14 17 18 14 4 0 1 2 2 3 4 3 3 4 4 4 2 1 0 0 0 0 0 0 0 0 1 2 1 2 5 5 3 4 4 2 0 0 0 0 0 0 0 0 0 0 0 0 0 0 0 0
0 0 0 0 2 1 1 2 2 7 10 13 16 17 7 2 2 3 5 6 7 7 6 4 3 4 3 3 2 1 6 6 0 0 0 0 1 1 1 1 0 0 0 0 0 0 0 0 0 0 0 0 0 0 0 0 0 0 0 0 1 1 1
0 0 0 1 5 3 1 0 0 3 6 8 10 8 0 0 2 6 12 14 12 12 9 8 2 2 3 4 1 2 6 10 12 4 1 0 0 1 2 1 0 0 0 1 4 4 2 0 0 0 0 1 8 1 0 1 1 0 0 2 1 0 1
0 0 0 1 6 4 3 2 0 2 6 8 1 0 1 1 2 4 14 22 26 22 20 15 7 4 2 2 1 1 7 9 11 8 13 12 6 1 1 0 0 0 0 0 0 1 0 4 1 2 8 7 4 0 2 4 2 1 0 1 1 1 0
0 0 1 3 3 2 1 0 0 1 3 7 2 0 0 0 2 6 11 14 17 24 26 9 8 5 2 2 1 2 6 10 9 9 18 16 12 4 0 0 0 1 4 5 5 3 0 0 0 0 0 0 0 0 4 8 3 1 0 0 0 1 1
0 0 0 2 3 0 0 1 1 5 7 7 4 0 0 2 1 0 4 11 18 24 22 8 7 12 2 3 3 4 6 10 19 14 24 25 15 7 0 0 0 4 4 8 6 1 0 0 0 0 0 0 0 0 0 0 0 1 4 1 0 0 0
0 0 0 0 0 0 4 5 3 6 4 1 9 18 4 2 8 4 3 2 3 11 17 11 4 8 1 0 4 5 6 9 19 20 23 27 17 8 0 0 0 2 3 5 6 1 0 0 0 0 0 0 0 0 0 0 0 0 0 2 1 0 0
0 0 0 0 3 5 3 2 3 2 8 10 6 8 34 10 8 8 3 2 3 4 8 7 5 0 4 6 7 6 5 12 18 19 22 26 19 14 8 2 0 0 0 0 0 0 0 0 0 0 0 0 0 0 1 1 0 0 0 0 1 0 0
0 0 0 6 5 4 3 1 1 8 10 12 16 14 11 12 10 14 18 9 2 7 12 2 3 4 5 3 5 7 3 5 11 12 13 19 18 14 9 4 0 0 0 0 0 0 1 1 1 2 3 4 4 1 0 1 1 0 0 0 1 1 0
0 2 11 12 9 9 5 2 1 8 10 8 12 18 18 15 16 16 8 8 8 2 3 1 2 6 12 8 8 10 8 6 4 2 7 12 12 12 11 6 2 1 0 0 0 1 1 0 1 5 6 4 2 1 0 0 0 0 0 0 0 1 1
1 6 12 12 14 13 11 8 6 9 8 7 7 13 16 17 12 11 11 6 4 9 4 3 2 2 10 9 13 15 11 10 8 5 2 3 4 7 4 2 3 2 2 2 2 2 1 1 1 2 2 1 2 1 0 0 0 0 0 0 1 0 0
2 9 12 12 14 17 17 13 8 13 10 9 8 9 10 12 10 7 8 9 8 5 3 4 7 7 9 8 10 7 9 10 9 5 2 1 0 1 2 2 2 2 1 2 2 3 2 0 0 1 0 0 1 2 0 0 0 0 0 0 0 0 0
3 7 16 12 13 15 14 8 8 15 15 14 14 11 12 12 11 10 10 8 8 9 5 1 3 6 11 14 13 8 3 4 5 3 2 1 2 2 1 1 1 3 6 7 5 2 1 0 0 2 2 0 0 1 0 0 0 0 0 0 0 2 4
2 10 8 13 19 18 9 8 10 14 12 14 14 12 10 8 10 11 11 7 3 4 7 5 8 9 4 4 3 2 2 4 4 2 2 0 0 0 1 2 3 4 6 6 5 5 6 5 1 0 0 0 0 0 0 0 0 0 0 2 3 3 2
8 8 3 11 14 13 11 10 8 8 14 19 18 14 9 6 6 9 9 8 9 11 8 5 3 1 0 0 1 1 0 0 0 2 3 3 2 0 0 0 0 0 1 0 2 12 14 5 0 0 0 0 0 0 0 0 0 1 1 0 2 6 7
12 7 5 7 9 13 9 7 10 18 19 19 19 16 12 9 10 12 9 7 8 7 1 0 0 0 0 0 0 0 0 0 0 0 0 1 1 2 1 1 0 0 0 0 0 1 4 9 4 1 1 1 0 0 0 0 0 0 0 0 0 2 3
17 15 15 11 7 9 14 15 16 17 20 20 19 17 11 8 8 13 9 5 0 0 0 0 0 0 1 1 0 0 0 0 0 0 0 0 0 0 0 0 0 0 0 0 0 0 3 10 8 1 1 3 3 2 0 0 0 1 0 0 0 0 0
11 14 14 16 14 11 6 12 16 17 20 20 18 14 9 8 7 12 4 0 0 0 0 0 0 0 0 0 0 0 0 0 0 0 0 0 0 0 0 0 0 0 0 0 0 0 0 0 2 1 0 1 5 4 2 0 1 4 2 0 0 0 0
10 12 15 15 17 16 20 20 18 19 20 20 17 11 8 7 5 5 3 0 0 0 0 0 0 0 0 1 1 1 0 0 0 0 0 0 0 0 0 0 0 0 0 0 0 0 0 0 0 1 2 1 3 4 3 1 1 3 3 1 0 0 0
6 10 12 11 14 16 20 24 24 23 20 20 16 12 7 1 0 0 1 1 0 0 0 1 1 1 1 2 2 1 1 2 2 2 2 2 1 0 0 0 0 0 0 0 0 0 0 0 0 0 0 2 2 0 1 2 0 0 0 0 0 0 0
0 0 4 3 2 9 21 23 21 21 19 18 16 11 5 0 0 0 0 0 0 1 0 1 2 1 0 0 0 0 0 0 0 0 0 0 0 0 0 0 0 0 0 0 0 0 0 0 0 0 0 0 2 1 2 1 0 0 1 1 0 0 0
0 0 0 1 2 6 16 21 18 18 16 18 17 11 1 0 0 0 0 0 0 0 0 0 2 2 1 0 0 0 0 0 0 0 0 0 0 0 0 0 0 0 0 0 0 0 0 0 0 0 0 0 1 1 0 0 0 0 2 1 0 4 1